Regional Weather Roundup
Issued by NWS Northern Indiana

Home | Current Version | Previous Version | Text Only | Print | Product List | Glossary Off
Versions: 1 2 3 4 5 6 7 8 9 10 11 12 13 14 15 16 17 18 19 20 21 22 23 24 25 26 27 28 29 30 31 32 33 34 35 36 37 38 39 40 41 42 43 44 45 46 47 48 49 50

069
ASUS43 KIWX 170600
RWRIWX

KIWX WEATHER ROUNDUP
NATIONAL WEATHER SERVICE NORTHERN INDIANA
100 AM EST TUE JAN 17 2017

NOTE: "FAIR" INDICATES FEW OR NO CLOUDS BELOW 12,000 FEET WITH NO
SIGNIFICANT WEATHER AND/OR OBSTRUCTIONS TO VISIBILITY.

* THESE STATIONS ARE NOT UNDER NWS QUALITY CONTROL. THEY ALSO MAY NOT
  REPORT WEATHER SUCH AS PRECIPITATION OR FOG.

INZ001>027-170700-
NORTHERN INDIANA

CITY           SKY/WX    TMP DP  RH WIND       PRES   REMARKS
SOUTH BEND     CLOUDY    37  37 100 E12       29.90F FOG
6HR MIN TEMP:  35; 6HR MAX TEMP:  37; 6HR PCP:  0.26;

GOSHEN         LGT RAIN  41  38  89 SE9       29.91F FOG
6HR MIN TEMP:  35; 6HR MAX TEMP:  41; 6HR PCP:  0.20;

FORT WAYNE     RAIN      43  42  97 SE6       29.95F VSB 1/4
6HR MIN TEMP:  36; 6HR MAX TEMP:  43; 6HR PCP:  0.45;

PERU/GRISSOM   LGT RAIN  48  48 100 S9        29.88S
6HR MIN TEMP:  40; 6HR MAX TEMP:  49; 6HR PCP:  0.56;


$$
INZ028>050-170700-
CENTRAL INDIANA

CITY           SKY/WX    TMP DP  RH WIND       PRES   REMARKS
LAFAYETTE      CLOUDY    52  52 100 S9        29.86F
6HR MIN TEMP:  44; 6HR MAX TEMP:  52; 6HR PCP:  0.84;

KOKOMO*        LGT RAIN  49  49 100 S14       29.91F
6HR MIN TEMP:  42; 6HR MAX TEMP:  49; 6HR PCP:  0.46;

MUNCIE*        LGT RAIN  54  51  90 S10       29.94F FOG
6HR MIN TEMP:  49; 6HR MAX TEMP:  54; 6HR PCP:  0.46;

INDIANAPOLIS   LGT RAIN  52  51  97 SE9       29.92F FOG
6HR MIN TEMP:  48; 6HR MAX TEMP:  52; 6HR PCP:  0.60;


$$
MIZ043>046-050>051-056>058-064>065-071>073-077>080-170700-
SOUTHWEST LOWER MICHIGAN

CITY           SKY/WX    TMP DP  RH WIND       PRES   REMARKS
BATTLE CREEK   RAIN      36  36 100 E7        29.94F FOG
6HR MIN TEMP:  34; 6HR MAX TEMP:  36; 6HR PCP:  0.21;

BENTON HARBOR  LGT RAIN  41  39  93 SE15      29.88F
6HR MIN TEMP:  37; 6HR MAX TEMP:  41; 6HR PCP:  0.16;

COLDWATER*     LGT SNOW  37  37 100 SE12      29.94F
6HR MIN TEMP:  34; 6HR MAX TEMP:  37;

HILLSDALE*     MIX PCPN  32  32 100 E10       29.96F WCI  24
HOLLAND        LGT RAIN  35  34  96 E10       29.92F WCI  27
6HR MIN TEMP:  33; 6HR MAX TEMP:  35; 6HR PCP:  0.36;

GRAND RAPIDS   HVY RAIN  33  32  96 E13       29.95F FOG     WCI  24
6HR MIN TEMP:  33; 6HR MAX TEMP:  33; 6HR PCP:  0.27;

KALAMAZOO      RAIN      37  35  92 VRB3      29.94F FOG
6HR MIN TEMP:  35; 6HR MAX TEMP:  37; 6HR PCP:  0.18;

STURGIS*       RAIN      37  37  99 SE5       29.93F
6HR MIN TEMP:  34; 6HR MAX TEMP:  37; 6HR PCP:  0.20;

THREE RIVERS*  LGT RAIN  36  36 100 E3        29.94F
6HR MIN TEMP:  34; 6HR MAX TEMP:  36;


$$
OHZ001>008-015>018-024>025-170700-
NORTHWEST OHIO

CITY           SKY/WX    TMP DP  RH WIND       PRES   REMARKS
DEFIANCE       RAIN      38  35  89 E9        29.99F FOG
6HR MIN TEMP:  36; 6HR MAX TEMP:  38; 6HR PCP:  0.19;

FINDLAY        LGT RAIN  44  41  89 SE13      29.99F FOG
6HR MIN TEMP:  38; 6HR MAX TEMP:  44; 6HR PCP:  0.05;

TOLEDO EXPRESS LGT RAIN  34  34 100 E8        30.01F FOG     WCI  27
6HR MIN TEMP:  33; 6HR MAX TEMP:  34; 6HR PCP:  0.10;

TOLEDO METCALF LGT RAIN  35  35 100 E7        30.03F FOG     WCI  29
6HR MIN TEMP:  34; 6HR MAX TEMP:  36; 6HR PCP:  0.07;

LIMA           RAIN      47  47 100 S10       29.99F FOG
6HR MIN TEMP:  39; 6HR MAX TEMP:  47; 6HR PCP:  0.12;


$$
AND FOR LAKE MICHIGAN COASTAL AND OPEN LAKE BUOY OBSERVATIONS

STATION/POSITION TEMP    WIND        PRES    VSBY  WAVE
                 AIR SEA DIR/SP/G                  HT/PER
                 (F)     (DEG/KT/KT) (MB)    (MI)  (FT/S)
CALUMET HARBOR    40     110/  3/  5 1009.9F
MICHIGAN CITY     42     120/ 12/ 14   N/A
BURNS HARBOR      46     140/ 13/ 20 1011.2F

$$
&&




USA.gov is the U.S. government's official web portal to all federal, state and local government web resources and services.